COSMOS 1275 DEB, 12676

Orbit data source: Space-Track

COSMOS 1275 DEB, 12676 is space debris in LEO originally from a launch on Thu, 04 Jun 1981 UTC launched from the Plesetsk Missile And Space Complex (PKMTR). Debris objects in space refer to the collection of defunct objects orbiting the Earth. Examples of debris include non-operational satellites, rocket bodies, and fragments generated from explosions, collisions, or faulty payload assembly.

Loading next visibility...
Identifier
12676, 1981-053AG
Orbit
LEO
Last TLE update
5 hours ago
Origin
Manufacturer
Unknown
Mission
Spacecraft
Bus & Motor
Unknown
Mass
Unknown
Launch date (UTC)
1981-06-04 (44 years ago)
Launch vehicle
Unknown
Launch site
Plesetsk Missile And Space Complex (PKMTR)
Object type
Payload
Rocket body
Debris
Shape & HBR
Unknown
Radar Cross Section
Medium (>0.1 m² and <1 m²)

Expand to show TLE details & history

TLE from 5 hours ago
0 COSMOS 1275 DEB
1 12676U 81053AG  25188.61582208  .00000373  00000-0  30625-3 0  9997
2 12676  82.9438  20.8081 0044268   1.5921  62.4509 13.86425969212979
Epoch: 2025-07-07T14:46Z
TLE epoch observation values (Epoch: 2025-07-07T14:46:47.027Z)
Latitude
63.68756°
Longitude
-112.29177°
Altitude
937.274 km
Speed
7.397 km/s
True Right ascension
02h 20m 54s
True Declination
63° 33' 14"
Sunlit
Object was in daylight at epoch
Visualization orbit readout
Latitude
69.68318°
Longitude
-107.44976°
Altitude
941.946 km
Speed
7.393 km/s
Apparent Right ascension
22h 00m 57s
Apparent Declination
28° 16' 08"
Sunlit
Object is in daylight
Visualization observer readout
Local Sidereal Time
08:04:02
Azimuth
333.338° NNW
Elevation
-16.596°
Doppler factor
1
Orbital elements
Apogee altitude
970.704 km
Perigee altitude
905.927 km
Semi-major axis
7,316.453 km
Eccentricity
0.00443
Inclination
82.9438°
RAAN
20.8081°
Arg. of periapsis
1.5921°
True anomaly
Unknown
Mean anomaly
62.4509°
Eccentric anomaly
Unknown
Mean motion
3.46811 °/min
Orbital period
103.8 mins
BSTAR
0.00030625
Loading maneuver chart data...
Loading SW <> Apogee altitude chart data...
Loading historical data...
Loading historical data...
Loading historical data...
Loading historical data...
Loading historical data...
Loading historical data...
Loading historical data...

COSMOS 1275 DEB Visibility forecast

Observer location: undefined°, undefined°

Span
Click to sort rows by Start time (UTC) header in descending order
Start Az.
Max El. time (UTC)
Max El. Az.
Max El.
End time (UTC)
End Az.
10 mins2025-07-07 23:42:22.354Z16.929° NNE2025-07-07 23:47:22.354Z72.448° E24.278°2025-07-07 23:52:22.354Z128.302° SE
9 mins2025-07-08 01:28:22.354Z330.659° NNW2025-07-08 01:32:22.354Z265.154° W34.669°2025-07-08 01:37:22.354Z202.671° SW
10 mins2025-07-08 13:06:22.354Z162.872° S2025-07-08 13:10:22.354Z105.39° ESE38.563°2025-07-08 13:16:22.354Z16.862° NNE
6 mins2025-07-08 14:53:22.354Z259.58° W2025-07-08 14:55:22.354Z284.6° WNW19.294°2025-07-08 14:59:22.354Z331.481° NNW
|